• In Sweden
  • List of Countries
  • For 7 days
  • Water Temperature
  • Satellite Maps
  • Weather Map
  • Weather Widgets
  • user-avatar
    Login

    Hourly Weather Carlisle

    Today, 22 November, Wednesday

    Time Temperature Precipitation Wind Pressure Humidity
    00:00 +9°C° 0 mm 10 mps 742 mmHg 88%
    01:00 +10°C° 0 mm 9 mps 742 mmHg 89%
    02:00 +10°C° 0 mm 8 mps 742 mmHg 89%
    03:00 +10°C° 0 mm 8 mps 741 mmHg 89%
    04:00 +9°C° 0.5 mm 7 mps 741 mmHg 90%
    05:00 +9°C° 0.5 mm 6 mps 740 mmHg 91%
    06:00 +9°C° 0.5 mm 5 mps 740 mmHg 92%
    07:00 +10°C° 2.2 mm 4 mps 739 mmHg 92%
    08:00 +10°C° 2.2 mm 4 mps 738 mmHg 93%
    09:00 +10°C° 2.2 mm 3 mps 737 mmHg 94%
    10:00 +10°C° 3.8 mm 4 mps 736 mmHg 93%
    11:00 +10°C° 3.8 mm 5 mps 735 mmHg 93%
    12:00 +10°C° 3.8 mm 5 mps 735 mmHg 93%
    13:00 +10°C° 2.6 mm 5 mps 734 mmHg 93%
    14:00 +10°C° 2.6 mm 5 mps 734 mmHg 94%
    15:00 +11°C° 2.6 mm 4 mps 733 mmHg 94%
    16:00 +11°C° 2.3 mm 4 mps 732 mmHg 94%
    17:00 +10°C° 2.3 mm 4 mps 732 mmHg 94%
    18:00 +10°C° 2.3 mm 3 mps 731 mmHg 94%
    19:00 +10°C° 1.2 mm 3 mps 731 mmHg 95%
    20:00 +9°C° 1.2 mm 3 mps 731 mmHg 95%
    21:00 +9°C° 1.2 mm 2 mps 730 mmHg 95%
    22:00 +9°C° 1.2 mm 2 mps 730 mmHg 95%
    23:00 +9°C° 1.2 mm 2 mps 730 mmHg 95%

    Tomorrow, 23 November, Thursday

    Time Temperature Precipitation Wind Pressure Humidity
    00:00 +8°C° 1.2 mm 2 mps 730 mmHg 95%
    01:00 +8°C° 0.5 mm 3 mps 730 mmHg 95%
    02:00 +7°C° 0.5 mm 4 mps 730 mmHg 94%
    03:00 +7°C° 0.5 mm 4 mps 730 mmHg 93%
    04:00 +6°C° 0.4 mm 5 mps 730 mmHg 89%
    05:00 +5°C° 0.4 mm 6 mps 731 mmHg 84%
    06:00 +4°C° 0.4 mm 8 mps 731 mmHg 80%
    07:00 +3°C° 0.1 mm 9 mps 732 mmHg 80%
    08:00 +5°C° 0.1 mm 10 mps 732 mmHg 79%
    09:00 +4°C° 0.1 mm 11 mps 733 mmHg 79%
    10:00 +4°C° 0.1 mm 11 mps 734 mmHg 77%
    11:00 +4°C° 0.1 mm 11 mps 736 mmHg 75%
    12:00 +4°C° 0.1 mm 11 mps 738 mmHg 73%
    13:00 +5°C° 0.1 mm 10 mps 739 mmHg 74%
    14:00 +3°C° 0.1 mm 9 mps 741 mmHg 74%
    15:00 +4°C° 0.1 mm 8 mps 743 mmHg 74%
    16:00 +4°C° 0.2 mm 7 mps 744 mmHg 75%
    17:00 +3°C° 0.2 mm 6 mps 745 mmHg 77%
    18:00 +3°C° 0.2 mm 6 mps 746 mmHg 78%
    19:00 +2°C° 0 mm 5 mps 747 mmHg 79%
    20:00 +2°C° 0 mm 5 mps 747 mmHg 79%
    21:00 +3°C° 0 mm 4 mps 748 mmHg 80%
    22:00 +3°C° 0 mm 4 mps 748 mmHg 81%
    23:00 +2°C° 0 mm 3 mps 748 mmHg 82%

    Day after tomorrow, 24 November, Friday

    Time Temperature Precipitation Wind Pressure Humidity
    00:00 +2°C° 0 mm 3 mps 749 mmHg 83%
    01:00 +2°C° 0 mm 3 mps 749 mmHg 83%
    02:00 +1°C° 0 mm 3 mps 749 mmHg 83%
    03:00 +1°C° 0 mm 3 mps 749 mmHg 84%
    04:00 +1°C° 0 mm 3 mps 750 mmHg 84%
    05:00 +1°C° 0 mm 3 mps 750 mmHg 83%
    06:00 +1°C° 0 mm 3 mps 750 mmHg 83%
    07:00 +1°C° 0 mm 3 mps 751 mmHg 83%
    08:00 +1°C° 0 mm 3 mps 751 mmHg 83%
    09:00 +2°C° 0 mm 3 mps 751 mmHg 82%
    10:00 +2°C° 0 mm 3 mps 752 mmHg 79%
    11:00 +3°C° 0 mm 4 mps 752 mmHg 75%
    12:00 +3°C° 0 mm 5 mps 752 mmHg 71%
    13:00 +4°C° 0 mm 4 mps 752 mmHg 72%
    14:00 +3°C° 0 mm 4 mps 752 mmHg 74%
    15:00 +3°C° 0 mm 4 mps 752 mmHg 76%
    16:00 +1°C° 0 mm 4 mps 752 mmHg 76%
    17:00 +2°C° 0 mm 3 mps 753 mmHg 77%
    18:00 +1°C° 0 mm 3 mps 753 mmHg 77%
    19:00 +1°C° 0 mm 3 mps 753 mmHg 77%
    20:00 +1°C° 0 mm 3 mps 753 mmHg 76%
    21:00 +1°C° 0 mm 3 mps 753 mmHg 76%
    22:00 0°C° 0.1 mm 4 mps 753 mmHg 77%
    23:00 0°C° 0.1 mm 4 mps 753 mmHg 78%

    25 November, Saturday

    Time Temperature Precipitation Wind Pressure Humidity
    00:00 0°C° 0.1 mm 4 mps 753 mmHg 79%
    01:00 0°C° 0.1 mm 4 mps 752 mmHg 79%
    02:00 0°C° 0.1 mm 4 mps 752 mmHg 80%
    03:00 0°C° 0.1 mm 4 mps 752 mmHg 81%
    04:00 0°C° 0.1 mm 5 mps 752 mmHg 80%
    05:00 0°C° 0.1 mm 5 mps 752 mmHg 80%
    06:00 0°C° 0.1 mm 5 mps 752 mmHg 79%
    07:00 0°C° 0.1 mm 5 mps 752 mmHg 79%
    08:00 0°C° 0.1 mm 4 mps 752 mmHg 80%
    09:00 0°C° 0.1 mm 4 mps 752 mmHg 80%
    10:00 +1°C° 0.1 mm 5 mps 753 mmHg 76%
    11:00 +2°C° 0.1 mm 5 mps 753 mmHg 72%
    12:00 +3°C° 0.1 mm 6 mps 754 mmHg 68%
    13:00 +2°C° 0 mm 6 mps 754 mmHg 71%
    14:00 +2°C° 0 mm 6 mps 754 mmHg 73%
    15:00 +2°C° 0 mm 7 mps 754 mmHg 75%
    16:00 +2°C° 0.1 mm 7 mps 754 mmHg 76%
    17:00 +1°C° 0.1 mm 8 mps 754 mmHg 77%
    18:00 +2°C° 0.1 mm 9 mps 754 mmHg 78%
    19:00 +2°C° 0.2 mm 8 mps 754 mmHg 80%
    20:00 +3°C° 0.2 mm 7 mps 755 mmHg 83%
    21:00 +3°C° 0.2 mm 7 mps 755 mmHg 86%
    22:00 +2°C° 0 mm 7 mps 756 mmHg 84%
    23:00 +2°C° 0 mm 6 mps 756 mmHg 82%

    26 November, Sunday

    Time Temperature Precipitation Wind Pressure Humidity
    00:00 +2°C° 0 mm 6 mps 757 mmHg 80%
    01:00 +2°C° 0 mm 6 mps 757 mmHg 80%
    02:00 +1°C° 0 mm 6 mps 757 mmHg 80%
    03:00 +1°C° 0 mm 5 mps 758 mmHg 80%
    04:00 +1°C° 0 mm 5 mps 758 mmHg 79%
    05:00 +1°C° 0 mm 5 mps 758 mmHg 78%
    06:00 0°C° 0 mm 5 mps 758 mmHg 77%
    07:00 0°C° 0 mm 5 mps 759 mmHg 77%
    08:00 0°C° 0 mm 5 mps 759 mmHg 76%
    09:00 0°C° 0 mm 5 mps 760 mmHg 76%
    10:00 +1°C° 0 mm 6 mps 760 mmHg 74%
    11:00 +2°C° 0 mm 6 mps 760 mmHg 71%
    12:00 +3°C° 0 mm 6 mps 760 mmHg 69%
    13:00 +3°C° 0 mm 6 mps 760 mmHg 70%
    14:00 +2°C° 0 mm 6 mps 761 mmHg 72%
    15:00 +2°C° 0 mm 5 mps 761 mmHg 74%
    16:00 +1°C° 0 mm 5 mps 761 mmHg 75%
    17:00 +1°C° 0 mm 5 mps 761 mmHg 76%
    18:00 0°C° 0 mm 5 mps 761 mmHg 77%
    19:00 0°C° 0 mm 4 mps 761 mmHg 77%
    20:00 0°C° 0 mm 4 mps 762 mmHg 78%
    21:00 0°C° 0 mm 4 mps 762 mmHg 78%
    22:00 +1°C° 0 mm 3 mps 761 mmHg 80%
    23:00 +1°C° 0 mm 3 mps 761 mmHg 81%

    27 November, Monday

    Time Temperature Precipitation Wind Pressure Humidity
    00:00 +1°C° 0 mm 3 mps 761 mmHg 83%
    01:00 +2°C° 0.2 mm 3 mps 760 mmHg 85%
    02:00 +1°C° 0.2 mm 4 mps 759 mmHg 86%
    03:00 +3°C° 0.2 mm 4 mps 758 mmHg 87%
    04:00 +2°C° 1 mm 5 mps 757 mmHg 89%
    05:00 +3°C° 1 mm 6 mps 756 mmHg 90%
    06:00 +4°C° 1 mm 7 mps 754 mmHg 91%
    07:00 +4°C° 1.3 mm 7 mps 754 mmHg 91%
    08:00 +4°C° 1.3 mm 6 mps 753 mmHg 91%
    09:00 +5°C° 1.3 mm 5 mps 752 mmHg 91%
    10:00 +5°C° 0.6 mm 4 mps 752 mmHg 89%
    11:00 +4°C° 0.6 mm 3 mps 751 mmHg 87%
    12:00 +5°C° 0.6 mm 2 mps 751 mmHg 84%
    13:00 +5°C° 0 mm 2 mps 750 mmHg 85%
    14:00 +4°C° 0 mm 2 mps 750 mmHg 85%
    15:00 +4°C° 0 mm 2 mps 749 mmHg 86%
    16:00 +3°C° 0 mm 2 mps 749 mmHg 87%
    17:00 +3°C° 0 mm 2 mps 749 mmHg 88%
    18:00 +2°C° 0 mm 2 mps 749 mmHg 89%
    19:00 +2°C° 0 mm 2 mps 748 mmHg 89%
    20:00 +2°C° 0 mm 2 mps 748 mmHg 89%
    21:00 +2°C° 0 mm 2 mps 747 mmHg 90%
    22:00 +1°C° 0.1 mm 3 mps 747 mmHg 90%
    23:00 +1°C° 0.1 mm 3 mps 747 mmHg 90%
    Show more